Wind_Speed
103 105 106 105 102 102 99 105 123 119 119 116 112 103 104 107 103 101 94 91 90 88 92 90 87 86 87 86 86 80 78 79 81 82 83 87 84 79 75 72 68 66 65 68
92 103 106 108 107 104 105 102 104 119 124 128 116 116 115 107 103 101 99 99 96 93 95 91 92 90 91 92 87 87 87 90 88 89 87 87 86 82 80 77 76 75 75 76
83 94 100 105 107 107 104 102 99 100 114 124 129 126 120 114 108 104 103 100 100 97 100 98 89 89 92 93 92 92 93 93 93 91 92 91 87 86 84 83 81 83 84 85
62 79 93 100 104 107 108 104 104 105 110 110 124 127 125 116 118 113 106 105 104 102 102 101 93 93 94 93 93 94 96 97 95 93 93 97 94 91 92 90 89 89 89 86
61 66 77 90 99 105 104 108 108 111 112 112 113 110 120 129 120 115 118 110 106 108 104 103 99 97 98 98 98 99 98 98 100 99 97 93 99 98 100 97 97 95 87 78
54 64 71 80 88 96 101 108 115 118 117 116 110 105 100 108 119 125 119 117 116 109 104 101 99 99 95 100 100 101 102 100 101 101 100 101 95 101 100 99 98 95 86 87
45 51 59 68 80 92 99 103 107 114 117 118 110 104 96 99 98 105 121 120 115 117 114 106 102 100 98 99 100 102 102 102 101 102 98 100 95 91 96 105 101 97 100 100
27 33 43 52 63 79 93 99 101 101 108 113 115 109 104 104 98 99 100 106 120 120 117 114 113 111 104 102 103 103 102 102 100 101 102 102 100 96 95 93 95 92 92 88
15 18 24 34 46 58 74 88 96 102 104 103 108 107 102 107 102 98 99 98 101 111 116 115 112 108 108 109 107 104 102 104 104 105 107 106 100 104 104 83 87 89 85 87
4 5 12 17 27 38 49 72 88 98 103 101 99 94 96 102 105 105 101 97 96 96 96 99 107 108 108 109 113 114 117 114 104 97 95 90 98 93 84 89 91 93 92 97
5 4 3 8 12 18 29 41 57 76 89 96 95 93 90 90 96 101 104 100 98 98 96 94 90 87 88 94 100 102 102 100 91 85 81 79 86 87 92 94 97 100 105 108
6 5 6 4 4 8 15 22 33 46 64 75 87 85 95 99 95 90 93 96 96 96 97 95 93 89 88 86 87 86 86 85 85 90 91 96 96 102 105 106 108 108 109 117
2 6 5 5 7 8 12 13 20 29 39 44 54 71 75 94 94 86 83 88 92 94 94 94 92 92 92 92 91 90 90 93 92 92 92 95 101 106 107 110 110 116 119 121
10 4 6 7 9 6 11 11 12 18 25 31 45 49 58 70 85 87 92 87 87 85 90 93 91 91 92 95 95 92 94 96 101 104 105 108 110 112 115 119 124 129 126 119
16 11 9 8 10 12 15 15 11 18 24 30 33 38 46 50 61 62 81 94 87 83 88 94 92 94 95 93 92 94 95 97 100 104 108 113 116 116 115 115 115 119 120 122
14 14 16 15 10 11 11 15 13 18 23 26 30 31 37 43 52 66 73 80 86 89 89 88 91 95 94 92 91 91 94 97 99 102 105 105 107 108 112 116 119 120 127 132
20 18 19 15 10 11 12 15 17 21 23 28 28 24 26 30 35 40 48 48 59 75 87 91 93 96 97 98 100 100 100 101 104 106 109 111 113 114 116 120 125 129 124 115
27 24 24 20 18 14 14 14 15 19 18 23 24 24 25 28 35 37 37 40 46 55 65 76 85 91 95 98 101 103 103 106 108 111 114 117 118 118 116 112 107 106 108 110
31 31 30 28 25 21 22 22 21 18 21 23 18 20 24 28 28 27 31 35 39 43 48 56 64 72 79 85 91 96 99 103 106 107 104 102 100 100 102 105 107 108 106 103
37 36 37 35 32 30 32 28 25 25 26 26 25 24 31 30 28 33 37 38 42 45 48 51 55 60 63 68 72 76 80 85 89 93 96 98 100 100 98 93 86 78 72 67
38 38 36 38 33 32 36 31 30 31 35 34 32 34 38 38 36 40 45 48 49 51 54 57 61 63 65 70 72 75 81 85 90 92 91 86 79 72 66 60 53 49 46 44
35 35 34 33 33 31 37 36 36 36 35 36 39 40 41 42 45 46 48 52 54 56 58 61 64 67 69 71 74 78 83 86 83 72 66 59 52 46 41 37 34 32 31 33
43 40 34 37 35 35 37 36 38 40 43 45 46 46 47 49 49 51 51 50 50 53 56 60 64 70 75 79 81 78 71 64 53 50 44 38 33 28 25 25 26 28 32 38
50 46 46 41 36 36 39 38 40 39 38 38 39 39 40 44 45 47 49 52 53 55 58 64 71 77 77 72 62 54 46 40 36 31 29 25 19 19 21 25 30 34 38 42
54 53 46 45 41 42 45 45 42 40 40 41 40 43 46 48 50 52 52 56 58 60 64 70 77 75 63 52 41 35 30 27 24 20 16 14 17 21 24 27 30 34 39 45
59 57 55 51 46 47 48 47 50 49 50 47 48 49 50 54 56 57 57 60 62 65 70 73 67 54 44 34 28 22 20 18 14 10 11 15 17 19 23 27 30 35 44 52
Wind_Direction
214 213 215 216 218 220 221 221 220 221 225 223 221 221 226 231 229 231 232 232 234 239 239 236 235 235 239 246 241 248 248 253 260 262 265 262 264 273 278 278 280 280 279 280
218 217 216 218 219 220 221 221 222 222 226 228 223 222 225 228 232 232 233 234 236 237 240 240 238 240 241 242 248 248 252 252 250 257 265 269 271 275 279 280 280 281 283 280
224 222 222 221 222 222 223 224 223 223 227 229 227 225 226 225 228 230 232 235 237 239 242 243 242 243 246 248 250 251 251 256 257 251 260 266 271 274 277 278 281 281 283 283
230 229 227 226 225 225 225 224 224 225 229 228 231 228 229 229 229 230 231 234 236 238 243 246 245 246 249 252 253 255 255 257 261 263 261 260 267 273 274 278 279 281 284 286
237 232 228 230 229 228 228 227 227 228 229 229 232 231 230 231 231 233 233 232 236 238 239 245 247 248 251 253 255 258 259 260 261 265 269 272 270 273 273 273 277 283 284 283
238 234 231 226 226 228 228 228 229 228 230 232 231 231 230 232 233 232 234 235 235 237 239 241 245 247 249 254 257 259 260 261 263 265 266 268 273 274 275 275 280 278 278 279
242 241 234 228 225 224 224 226 230 231 232 234 234 234 231 232 233 235 235 235 237 238 239 240 242 245 247 251 253 256 259 262 264 266 269 272 275 276 276 276 277 274 279 278
237 232 232 227 221 221 223 223 227 231 234 234 234 232 231 233 233 235 236 237 237 238 239 241 243 245 248 249 250 255 258 261 263 266 269 272 274 278 280 281 283 281 284 281
228 230 223 222 220 219 220 221 223 227 229 234 235 234 235 235 234 235 237 238 238 240 242 242 244 246 249 249 250 252 256 259 262 266 267 269 270 271 265 283 282 282 278 272
213 214 224 219 220 219 220 221 220 223 229 230 233 235 234 236 235 235 238 239 241 241 242 243 246 248 250 253 255 256 257 260 265 269 271 268 270 272 276 274 275 276 273 271
171 183 187 174 199 209 220 227 227 228 228 230 231 235 234 235 237 235 236 239 242 244 243 243 245 249 251 253 257 258 260 260 261 263 266 261 259 259 264 264 264 266 269 272
190 164 169 186 196 206 222 219 222 226 229 229 231 234 239 236 237 237 236 238 241 245 247 247 246 247 250 253 256 258 256 254 251 251 257 260 259 262 268 269 272 273 274 275
100 213 171 142 203 188 218 204 211 217 221 216 227 225 233 241 240 238 239 237 238 242 246 248 250 251 251 253 254 257 256 256 256 255 258 262 262 266 268 271 271 273 275 276
171 199 190 178 216 193 214 223 208 216 218 218 218 218 231 238 242 243 244 240 239 243 247 250 250 252 253 255 256 259 259 259 261 260 260 262 264 266 268 271 274 275 280 283
181 189 214 192 207 214 223 216 201 218 221 224 220 223 228 233 235 236 244 246 241 242 244 249 253 255 256 258 260 262 263 264 265 267 268 268 268 272 275 277 278 281 284 284
205 193 206 216 217 205 215 228 204 211 218 226 234 224 228 220 216 236 247 249 251 250 248 249 253 256 260 261 262 264 265 267 269 271 273 274 276 278 278 280 282 283 285 287
216 205 218 220 217 217 221 216 222 232 227 226 234 233 236 244 250 251 255 261 257 255 253 252 252 255 258 261 264 266 268 270 272 274 276 278 279 281 281 283 285 285 286 286
228 229 234 229 223 222 237 232 225 232 244 243 241 239 237 232 236 243 248 253 255 257 258 257 256 258 260 262 264 267 270 272 273 275 276 278 281 283 283 283 283 284 284 285
230 234 235 238 235 233 239 239 240 248 248 252 249 244 250 247 245 250 258 259 260 261 263 264 266 266 266 267 268 269 271 273 276 278 278 278 280 281 282 282 283 284 283 284
234 242 239 237 235 236 240 243 248 250 254 257 257 256 259 264 263 262 265 267 267 268 268 269 269 269 269 270 272 273 275 275 275 276 278 281 283 284 284 284 284 285 285 284
233 242 247 246 240 245 250 249 253 254 252 255 259 257 258 260 262 264 267 269 270 271 274 275 276 276 276 276 276 278 280 282 284 286 288 287 286 286 287 286 286 286 284 284
233 236 238 240 245 249 252 247 248 252 255 257 255 255 259 262 261 263 265 269 272 274 276 278 279 280 280 281 282 283 284 285 287 288 287 289 290 291 292 291 289 289 293 295
238 237 240 243 238 240 249 252 252 253 255 258 261 263 263 265 266 267 269 271 273 275 278 281 284 286 286 287 288 288 288 288 286 286 290 290 293 294 295 299 302 303 303 302
235 237 236 238 237 239 246 250 250 250 252 252 254 259 263 264 266 269 272 275 279 282 285 287 288 290 292 292 290 289 286 284 285 289 291 294 299 305 309 311 307 305 304 302
234 237 239 242 242 247 248 249 252 251 253 256 260 263 266 269 271 274 278 281 283 285 288 290 293 295 294 292 289 285 281 284 288 290 299 310 315 313 310 308 310 309 307 305
237 239 240 243 245 248 250 253 256 257 259 261 265 267 269 272 276 279 282 284 286 289 291 294 294 293 291 288 281 281 281 284 284 299 311 313 312 316 320 321 321 320 317 313
Height
10624 10638 10653 10662 10673 10684 10696 10708 10725 10743 10741 10748 10773 10783 10780 10786 10807 10822 10833 10841 10850 10858 10855 10867 10880 10884 10883 10884 10891 10896 10898 10895 10892 10893 10893 10892 10897 10901 10903 10903 10904 10907 10909 10902
10616 10624 10637 10646 10656 10668 10677 10690 10712 10726 10719 10717 10751 10763 10759 10777 10796 10812 10818 10825 10835 10841 10838 10855 10869 10873 10872 10873 10879 10881 10882 10877 10883 10881 10881 10881 10884 10889 10889 10888 10890 10889 10888 10887
10606 10618 10627 10636 10646 10658 10669 10686 10700 10704 10697 10708 10718 10729 10748 10768 10778 10792 10803 10814 10821 10827 10826 10831 10854 10861 10857 10859 10865 10865 10864 10861 10860 10867 10867 10870 10875 10874 10873 10876 10879 10875 10870 10871
10599 10606 10614 10623 10635 10645 10654 10671 10677 10683 10675 10690 10701 10732 10743 10757 10767 10776 10789 10802 10807 10815 10814 10819 10839 10842 10841 10847 10848 10847 10849 10848 10847 10847 10853 10853 10856 10859 10859 10865 10866 10862 10860 10857
10583 10589 10598 10608 10616 10625 10645 10654 10660 10660 10659 10673 10678 10710 10742 10730 10751 10764 10773 10785 10796 10800 10809 10809 10822 10827 10828 10831 10831 10832 10834 10838 10837 10837 10837 10841 10841 10845 10846 10855 10852 10850 10846 10844
10562 10569 10577 10584 10597 10608 10618 10627 10628 10634 10640 10650 10673 10694 10713 10723 10740 10741 10751 10766 10778 10786 10799 10803 10807 10813 10816 10813 10816 10816 10817 10819 10822 10823 10824 10823 10827 10827 10828 10833 10836 10831 10829 10825
10549 10552 10557 10566 10576 10582 10592 10603 10614 10622 10629 10637 10667 10682 10711 10708 10714 10725 10734 10749 10761 10771 10778 10787 10793 10792 10800 10803 10802 10801 10802 10803 10804 10805 10806 10808 10811 10812 10812 10813 10818 10818 10811 10808
10539 10540 10541 10546 10555 10562 10572 10591 10604 10613 10619 10628 10639 10665 10684 10685 10706 10707 10717 10729 10738 10744 10755 10767 10774 10776 10784 10787 10784 10786 10788 10790 10790 10792 10794 10794 10793 10791 10791 10792 10794 10797 10794 10790
10534 10535 10536 10539 10543 10548 10557 10572 10581 10590 10600 10612 10625 10648 10676 10677 10690 10700 10699 10707 10718 10727 10737 10748 10756 10765 10762 10761 10771 10772 10773 10776 10779 10779 10778 10778 10777 10777 10781 10771 10769 10774 10774 10774
10531 10533 10534 10536 10539 10543 10547 10552 10563 10572 10584 10603 10614 10631 10650 10655 10669 10679 10689 10695 10700 10708 10718 10729 10740 10745 10748 10743 10749 10755 10757 10760 10760 10759 10758 10757 10757 10759 10756 10752 10750 10748 10750 10752
10529 10531 10534 10536 10538 10540 10545 10553 10564 10569 10580 10593 10611 10621 10630 10641 10651 10662 10672 10681 10686 10689 10700 10714 10724 10731 10733 10727 10730 10736 10740 10743 10743 10741 10739 10736 10737 10736 10736 10733 10730 10726 10722 10719
10528 10529 10531 10533 10538 10542 10546 10551 10556 10563 10572 10587 10602 10615 10612 10622 10627 10645 10661 10668 10672 10675 10679 10693 10704 10714 10714 10720 10716 10716 10719 10720 10724 10721 10718 10721 10722 10715 10713 10714 10708 10706 10703 10696
10527 10529 10530 10533 10538 10540 10544 10550 10556 10559 10565 10580 10587 10595 10599 10607 10622 10636 10641 10648 10652 10656 10666 10673 10687 10692 10695 10697 10701 10702 10700 10700 10704 10702 10702 10700 10698 10698 10693 10690 10688 10682 10679 10674
10524 10528 10530 10535 10536 10540 10544 10549 10555 10561 10564 10572 10577 10586 10595 10602 10615 10620 10619 10636 10644 10652 10654 10657 10668 10673 10679 10681 10684 10686 10688 10687 10681 10680 10683 10682 10676 10675 10672 10667 10662 10657 10652 10645
10522 10526 10528 10532 10535 10540 10544 10548 10555 10559 10562 10563 10572 10583 10588 10596 10607 10602 10602 10615 10631 10640 10646 10646 10649 10652 10658 10666 10669 10670 10670 10667 10664 10661 10662 10659 10656 10654 10649 10643 10638 10632 10625 10620
10521 10524 10527 10529 10534 10540 10544 10548 10553 10557 10561 10564 10567 10575 10579 10588 10594 10591 10602 10608 10621 10626 10630 10637 10635 10636 10639 10644 10651 10652 10650 10648 10646 10640 10636 10635 10632 10627 10623 10617 10612 10605 10598 10591
10517 10522 10525 10530 10536 10539 10543 10546 10550 10555 10559 10562 10565 10575 10583 10585 10588 10593 10595 10605 10603 10605 10610 10619 10624 10625 10626 10628 10628 10628 10628 10628 10623 10620 10614 10609 10605 10602 10597 10590 10585 10578 10571 10562
10514 10519 10522 10529 10535 10539 10541 10544 10548 10550 10555 10558 10564 10571 10575 10580 10583 10587 10593 10593 10592 10592 10597 10601 10605 10608 10610 10610 10610 10608 10608 10605 10601 10595 10589 10586 10584 10578 10571 10563 10555 10549 10542 10535
10509 10515 10521 10525 10530 10536 10538 10542 10545 10550 10550 10550 10562 10567 10567 10569 10577 10581 10580 10581 10582 10584 10585 10586 10589 10592 10593 10593 10590 10589 10588 10583 10578 10571 10567 10562 10558 10552 10545 10536 10529 10522 10516 10508
10504 10507 10513 10519 10527 10531 10532 10537 10541 10545 10545 10548 10554 10558 10558 10563 10569 10570 10570 10572 10572 10574 10576 10576 10575 10575 10576 10576 10573 10569 10566 10559 10552 10548 10544 10540 10533 10525 10516 10508 10501 10496 10491 10485
10498 10502 10506 10511 10520 10524 10522 10533 10536 10538 10538 10543 10548 10550 10550 10554 10559 10560 10559 10559 10562 10564 10564 10563 10561 10560 10562 10557 10555 10553 10544 10536 10530 10527 10521 10512 10504 10498 10494 10486 10482 10477 10473 10468
10494 10496 10502 10507 10513 10518 10515 10522 10528 10530 10534 10537 10538 10540 10543 10546 10546 10550 10552 10550 10551 10553 10552 10551 10546 10544 10542 10539 10536 10531 10525 10518 10513 10506 10498 10493 10487 10482 10477 10472 10469 10466 10462 10456
10485 10491 10499 10503 10508 10510 10508 10515 10521 10525 10525 10527 10527 10532 10533 10534 10535 10537 10539 10541 10540 10540 10540 10536 10532 10527 10523 10519 10515 10509 10502 10498 10494 10488 10485 10480 10477 10473 10468 10464 10461 10458 10455 10449
10477 10483 10487 10495 10501 10503 10503 10508 10510 10514 10518 10520 10520 10522 10522 10522 10525 10526 10528 10528 10526 10527 10525 10521 10515 10509 10504 10498 10493 10489 10485 10483 10480 10478 10476 10473 10469 10466 10463 10460 10456 10452 10446 10439
10468 10474 10484 10487 10495 10497 10494 10496 10501 10506 10508 10509 10513 10513 10512 10512 10512 10514 10517 10514 10513 10512 10508 10503 10496 10491 10485 10480 10478 10476 10474 10473 10472 10471 10469 10467 10465 10462 10458 10455 10450 10444 10438 10430
10462 10466 10470 10477 10485 10485 10486 10490 10490 10496 10496 10501 10501 10501 10501 10500 10501 10502 10504 10501 10499 10496 10491 10486 10481 10475 10471 10469 10468 10467 10466 10466 10467 10466 10465 10463 10461 10457 10452 10447 10443 10438 10426 10414